[[{"header":{"parameterUnit":"m.s-1","parameterCategory":1,"la1":30.2991,"la2":30.254,"lo1":-89.0895,"lo2":-89.0444,"dy":0.0017,"dx":0.0017,"nx":28,"ny":28,"refTime":"2024-10-08T03:00:00:Z","depth":0,"parameterNumber":2,"parameterNumberName":"U-component_of_WINDS"},"data":[0,0,0,0,0,0,0,0,0,0,0,0,0,0,0,0,0,0,0,0,0,0,0,0,0,0,0,0,0,0,0,0,0,0,0,0,0,0,0,0,0,0,0,0,0,0,0,0,0,0,0,0,0,0,0,0,0,0,-1.2691,-1.2692,0,-1.2803,-1.2805,-1.2806,-1.2792,-1.2791,-1.2789,-1.2787,-1.2906,-1.2911,-1.2915,0,0,0,0,0,0,0,0,0,0,0,0,0,-1.2468,-1.2472,-1.2691,-1.2692,-1.2694,-1.2803,-1.2805,-1.2806,-1.2793,-1.279,-1.2788,-1.2786,-1.2904,-1.291,-1.2916,0,0,0,0,0,0,0,0,0,0,0,0,0,-1.2571,-1.2473,-1.2691,-1.27,-1.2702,-1.2803,-1.2805,-1.2807,-1.2793,-1.279,-1.2788,-1.2785,-1.2902,-1.2909,-1.2917,-1.3016,0,0,-1.2939,-1.2942,0,0,0,0,0,0,0,0,-1.2565,-1.2579,-1.2697,-1.27,-1.2702,-1.2781,-1.277,-1.2877,-1.2794,-1.2759,-1.2787,-1.2784,-1.2867,-1.2877,-1.2904,-1.3022,-1.3027,-1.294,-1.2944,-1.2947,-1.2949,0,0,0,0,0,0,0,-1.2558,-1.2574,-1.2736,-1.2699,-1.2702,-1.27,-1.2711,-1.279,-1.2827,-1.2762,-1.2761,-1.2774,-1.2868,-1.2897,-1.2907,-1.3029,-1.2939,-1.2946,-1.295,-1.2953,-1.3236,-1.3239,0,0,0,0,0,0,-1.2548,-1.2568,-1.2732,-1.2739,-1.2625,-1.2706,-1.2719,-1.2758,-1.2826,-1.2833,-1.2776,-1.2773,-1.2886,-1.2898,-1.2911,-1.3034,-1.2947,-1.2954,-1.2958,-1.3233,-1.3236,-1.324,0,0,0,0,0,0,-1.2543,-1.2563,-1.2727,-1.2653,-1.2674,-1.2713,-1.2757,-1.2762,-1.2792,-1.2837,-1.2844,-1.28,-1.2884,-1.2901,-1.299,-1.3037,-1.2957,-1.2964,-1.3229,-1.3234,-1.3238,-1.3279,0,0,0,0,0,0,-1.2537,-1.2561,-1.2599,-1.2654,-1.2678,-1.2804,-1.276,-1.2766,-1.2804,-1.2801,-1.2861,-1.2868,-1.2883,-1.2979,-1.2998,-1.3046,-1.2969,-1.3225,-1.3231,-1.3237,-1.3274,-1.3285,-1.3294,0,0,0,0,0,-1.2529,-1.2606,-1.2601,-1.2621,-1.2726,-1.2807,-1.2821,-1.2836,-1.2808,-1.2847,-1.2876,-1.2866,-1.3029,-1.2989,-1.3009,-1.306,-1.3222,-1.3229,-1.3236,-1.3269,-1.3282,-1.3294,0,0,0,0,0,0,-1.2557,-1.2614,-1.2608,-1.2706,-1.2751,-1.2804,-1.2854,-1.2849,-1.2905,-1.29,-1.2917,-1.2931,-1.3022,-1.305,-1.3004,-1.3161,-1.3122,-1.3133,-1.314,-1.3153,-1.3163,-1.3155,-1.2976,0,0,0,0,0,-1.2574,-1.2634,-1.2681,-1.2762,-1.2785,-1.2816,-1.2852,-1.2859,-1.2908,-1.2927,-1.2963,-1.3011,-1.3074,-1.3114,-1.3174,-1.3277,-1.3291,-1.3322,-1.3332,-1.334,-1.3351,-1.3409,-1.3424,-1.3263,-1.3263,-1.3263,0,0,-1.2611,-1.2649,-1.2686,-1.2769,-1.2805,-1.2868,-1.2832,-1.29,-1.2948,-1.2938,-1.3025,-1.3053,-1.3108,-1.3205,-1.325,-1.3231,-1.3398,-1.3349,-1.3355,-1.3362,-1.3417,-1.3433,-1.3446,-1.3268,-1.3267,-1.3266,0,0,-1.2711,-1.2745,-1.2817,-1.2854,-1.2909,-1.2928,-1.2946,-1.2999,-1.3017,-1.3104,-1.3099,-1.3155,-1.3261,-1.3302,-1.3336,-1.3449,-1.3444,-1.3468,-1.3522,-1.3578,-1.3591,-1.3602,-1.3645,-1.366,-1.3478,-1.3478,-1.3478,0,-1.275,-1.2844,-1.2855,-1.2924,-1.2962,-1.2954,-1.3028,-1.3063,-1.3135,-1.3162,-1.3139,-1.3273,-1.3309,-1.3416,-1.3444,-1.3471,-1.3493,-1.3463,-1.3588,-1.3599,-1.361,-1.3651,-1.3667,-1.3481,-1.3481,-1.348,-1.348,0,-1.2891,-1.2956,-1.3007,-1.3076,-1.3119,-1.319,-1.3214,-1.3255,-1.3259,-1.3281,-1.337,-1.3413,-1.3482,-1.3507,-1.3511,-1.3615,-1.3602,-1.3584,-1.3545,-1.3628,-1.3667,-1.3683,-1.3485,-1.3484,-1.3483,-1.3482,0,0,-1.3014,-1.3087,-1.3106,-1.3137,-1.3197,-1.3248,-1.3319,-1.3384,-1.3421,-1.347,-1.3532,-1.3621,-1.3604,-1.3643,-1.3651,-1.37,-1.379,-1.3676,-1.3677,-1.3698,-1.3909,-1.3925,-1.3942,-1.3785,-1.3788,-1.379,-1.3905,0,-1.3121,-1.3246,-1.3258,-1.3371,-1.3432,-1.3424,-1.3486,-1.353,-1.3552,-1.3608,-1.3632,-1.3697,-1.3668,-1.3692,-1.374,-1.3769,-1.3833,-1.376,-1.3844,-1.3847,-1.3833,-1.3962,-1.3979,-1.4086,-1.392,-1.3923,-1.3924,0,-1.3264,-1.3317,-1.3435,-1.3486,-1.3512,-1.3567,-1.3629,-1.3682,-1.3731,-1.3744,-1.3787,-1.3788,-1.3863,-1.3819,-1.3922,-1.3873,-1.3907,-1.3927,-1.3931,-1.3942,-1.3893,-1.3979,-1.412,-1.4137,-1.3948,-1.3946,-1.3945,0,-1.3345,-1.3445,-1.3529,-1.3556,-1.3617,-1.3656,-1.3684,-1.373,-1.3769,-1.3823,-1.3849,-1.391,-1.3945,-1.3994,-1.4012,-1.3978,-1.4116,-1.4073,-1.4131,-1.413,-1.4162,-1.4161,-1.4313,-1.418,-1.418,-1.418,-1.4179,0,-1.3465,-1.3539,-1.3566,-1.3618,-1.37,-1.3713,-1.3794,-1.382,-1.3861,-1.3919,-1.3916,-1.397,-1.399,-1.4049,-1.4064,-1.4148,-1.4163,-1.4177,-1.4181,-1.4179,-1.4178,-1.4204,-1.4199,-1.4184,-1.4183,-1.4182,-1.4181,0,-1.3571,-1.3592,-1.3683,-1.3733,-1.3747,-1.3806,-1.3849,-1.39,-1.392,-1.3993,-1.4011,-1.4044,-1.4112,-1.4134,-1.4217,-1.4227,-1.4327,-1.4322,-1.431,-1.4311,-1.4368,-1.4364,-1.4546,-1.4571,-1.4419,-1.442,-1.4421,0,-1.3648,-1.3704,-1.3759,-1.3797,-1.3826,-1.3886,-1.3926,-1.394,-1.3982,-1.4042,-1.4086,-1.4153,-1.4208,-1.4317,-1.4349,-1.4413,-1.4412,-1.4471,-1.4422,-1.4418,-1.4416,-1.4413,-1.442,-1.4482,-1.4483,-1.4484,-1.4485,0,-1.3783,-1.379,-1.3846,-1.3907,-1.3953,-1.4001,-1.4048,-1.4079,-1.4101,-1.4148,-1.4217,-1.4259,-1.4343,-1.441,-1.4475,-1.4504,-1.45,-1.45,-1.4517,-1.4518,-1.4509,-1.4517,-1.4338,-1.4497,-1.4496,-1.4495,-1.4494,-1.4494,-1.3878,-1.3928,-1.3975,-1.4038,-1.4074,-1.4117,-1.4168,-1.4194,-1.4251,-1.432,-1.4325,-1.44,-1.4448,-1.4534,-1.4566,-1.4626,-1.461,-1.4634,-1.4641,-1.4647,-1.4653,-1.4497,-1.4638,-1.4637,-1.4637,-1.4637,-1.4637,0,-1.4015,-1.4044,-1.4102,-1.4167,-1.4217,-1.4205,-1.4256,-1.4299,-1.4364,-1.4409,-1.4462,-1.4542,-1.4607,-1.4644,-1.4709,-1.475,-1.475,-1.4767,-1.4766,-1.4773,-1.4663,-1.4642,-1.4766,-1.4766,-1.4766,-1.4766,-1.4766,-1.4766,-1.4093,-1.4177,-1.419,-1.4292,-1.4321,-1.4393,-1.4424,-1.4464,-1.45,-1.4589,-1.4643,-1.4665,-1.4707,-1.4775,-1.4835,-1.4844,-1.4869,-1.4889,-1.4897,-1.4794,-1.4781,-1.4768,-1.4749,-1.4894,-1.4894,-1.5003,-1.5004,-1.5004]},{"header":{"parameterUnit":"m.s-1","parameterCategory":1,"la1":30.2991,"la2":30.254,"lo1":-89.0895,"lo2":-89.0444,"dy":0.0017,"dx":0.0017,"nx":28,"ny":28,"refTime":"2024-10-08T03:00:00:Z","depth":0,"parameterNumber":3,"parameterNumberName":"V-component_of_WINDS"},"data":[0,0,0,0,0,0,0,0,0,0,0,0,0,0,0,0,0,0,0,0,0,0,0,0,0,0,0,0,0,0,0,0,0,0,0,0,0,0,0,0,0,0,0,0,0,0,0,0,0,0,0,0,0,0,0,0,0,0,-6.0679,-6.068,0,-6.0728,-6.0728,-6.0729,-6.0621,-6.0618,-6.0614,-6.0611,-6.0656,-6.0661,-6.0665,0,0,0,0,0,0,0,0,0,0,0,0,0,-6.0488,-6.0493,-6.0679,-6.068,-6.068,-6.0727,-6.0728,-6.0729,-6.0622,-6.0618,-6.0613,-6.061,-6.0655,-6.066,-6.0665,0,0,0,0,0,0,0,0,0,0,0,0,0,-6.0558,-6.0494,-6.0679,-6.0633,-6.0629,-6.0727,-6.0728,-6.0729,-6.0623,-6.0618,-6.0612,-6.0608,-6.0653,-6.066,-6.0666,-6.081,0,0,-6.0686,-6.0689,0,0,0,0,0,0,0,0,-6.0554,-6.0565,-6.0639,-6.0636,-6.0632,-6.0663,-6.0677,-6.0756,-6.0624,-6.0625,-6.0611,-6.0605,-6.0662,-6.0668,-6.0688,-6.0812,-6.0814,-6.0687,-6.0691,-6.0694,-6.0696,0,0,0,0,0,0,0,-6.0549,-6.0562,-6.0698,-6.064,-6.0636,-6.0608,-6.0612,-6.0692,-6.0672,-6.0624,-6.0617,-6.0624,-6.066,-6.0682,-6.0688,-6.0815,-6.0687,-6.0693,-6.0697,-6.0699,-6.1058,-6.1064,0,0,0,0,0,0,-6.0551,-6.0559,-6.0696,-6.0699,-6.058,-6.0615,-6.062,-6.0658,-6.0671,-6.0668,-6.0629,-6.0619,-6.0673,-6.0681,-6.069,-6.0859,-6.0694,-6.07,-6.0704,-6.1053,-6.1059,-6.1066,0,0,0,0,0,0,-6.0547,-6.0564,-6.0694,-6.0627,-6.0641,-6.0624,-6.0668,-6.0662,-6.0684,-6.0674,-6.0669,-6.0656,-6.067,-6.068,-6.0781,-6.0859,-6.0703,-6.0709,-6.1046,-6.1055,-6.1063,-6.1199,0,0,0,0,0,0,-6.0542,-6.0564,-6.0619,-6.0629,-6.0646,-6.0787,-6.0673,-6.0667,-6.0697,-6.0685,-6.0698,-6.0695,-6.0666,-6.0772,-6.0788,-6.0865,-6.0714,-6.1039,-6.105,-6.106,-6.1187,-6.1211,-6.1231,0,0,0,0,0,-6.0536,-6.0655,-6.0623,-6.064,-6.0715,-6.0792,-6.0801,-6.0767,-6.0704,-6.0759,-6.0752,-6.0695,-6.0848,-6.0783,-6.08,-6.0881,-6.1034,-6.1047,-6.1059,-6.1177,-6.1206,-6.123,0,0,0,0,0,0,-6.0653,-6.0655,-6.062,-6.0746,-6.077,-6.0774,-6.0842,-6.0798,-6.0839,-6.0826,-6.078,-6.0784,-6.0893,-6.0896,-6.0824,-6.102,-6.093,-6.0947,-6.1014,-6.1041,-6.1063,-6.106,-6.0719,0,0,0,0,0,-6.0694,-6.0758,-6.0755,-6.0867,-6.0881,-6.086,-6.0892,-6.0863,-6.0885,-6.0894,-6.0895,-6.0917,-6.097,-6.1005,-6.1054,-6.1187,-6.1188,-6.1251,-6.1272,-6.129,-6.1305,-6.1375,-6.1403,-6.1107,-6.1107,-6.1106,0,0,-6.0778,-6.0788,-6.083,-6.0891,-6.0906,-6.0971,-6.0869,-6.0942,-6.099,-6.0905,-6.1001,-6.1002,-6.1023,-6.1141,-6.1193,-6.1147,-6.1387,-6.1306,-6.1321,-6.1326,-6.1391,-6.1419,-6.1444,-6.1115,-6.1114,-6.1112,0,0,-6.0966,-6.098,-6.1074,-6.1092,-6.1116,-6.1101,-6.1124,-6.1135,-6.1133,-6.1228,-6.1166,-6.1221,-6.1313,-6.1331,-6.1352,-6.1546,-6.1495,-6.1563,-6.1677,-6.1746,-6.1769,-6.179,-6.1859,-6.1884,-6.1578,-6.1578,-6.1578,0,-6.1067,-6.1165,-6.1128,-6.1206,-6.1234,-6.1161,-6.1256,-6.1274,-6.1312,-6.1332,-6.1281,-6.1395,-6.1405,-6.1525,-6.1573,-6.1593,-6.1616,-6.1561,-6.1769,-6.1789,-6.1808,-6.1873,-6.1899,-6.1586,-6.1585,-6.1584,-6.1584,0,-6.1289,-6.1357,-6.143,-6.1471,-6.1507,-6.1593,-6.1567,-6.1607,-6.1576,-6.1566,-6.1663,-6.1672,-6.1721,-6.1747,-6.1716,-6.1863,-6.1834,-6.1777,-6.1686,-6.1845,-6.1905,-6.193,-6.1598,-6.1595,-6.1592,-6.159,0,0,-6.1552,-6.1571,-6.1599,-6.1616,-6.1638,-6.1689,-6.1771,-6.182,-6.1855,-6.1884,-6.1951,-6.2031,-6.1978,-6.2002,-6.1972,-6.2033,-6.2186,-6.1968,-6.1967,-6.2008,-6.2348,-6.2391,-6.2421,-6.2152,-6.2157,-6.216,-6.2346,0,-6.1737,-6.1881,-6.1849,-6.1989,-6.2051,-6.1983,-6.2054,-6.2074,-6.2067,-6.2117,-6.2108,-6.2166,-6.2092,-6.2106,-6.2163,-6.2155,-6.2253,-6.2141,-6.2213,-6.2216,-6.221,-6.2452,-6.2498,-6.2673,-6.237,-6.2373,-6.2376,0,-6.1973,-6.2013,-6.216,-6.2172,-6.2196,-6.2261,-6.2303,-6.2353,-6.2373,-6.2364,-6.2391,-6.235,-6.2429,-6.2337,-6.2445,-6.2369,-6.2396,-6.2397,-6.2403,-6.2408,-6.2306,-6.2464,-6.2728,-6.2755,-6.2413,-6.241,-6.2408,0,-6.2151,-6.224,-6.234,-6.2357,-6.2373,-6.242,-6.2428,-6.2444,-6.2475,-6.2511,-6.2531,-6.2575,-6.26,-6.2634,-6.2605,-6.2541,-6.2718,-6.2623,-6.2711,-6.2712,-6.2751,-6.2749,-6.3024,-6.2769,-6.2769,-6.2768,-6.2768,0,-6.2362,-6.2454,-6.242,-6.2481,-6.2582,-6.2544,-6.2644,-6.2644,-6.2659,-6.2718,-6.266,-6.2716,-6.2674,-6.2726,-6.2704,-6.2796,-6.2808,-6.2801,-6.2794,-6.2807,-6.2808,-6.2824,-6.2811,-6.2775,-6.2774,-6.2772,-6.2771,0,-6.2577,-6.2558,-6.2662,-6.2669,-6.2672,-6.2747,-6.2751,-6.2807,-6.2796,-6.2871,-6.2886,-6.2868,-6.2926,-6.29,-6.2961,-6.2945,-6.3065,-6.3041,-6.3059,-6.3053,-6.3142,-6.3134,-6.3436,-6.3474,-6.3195,-6.3198,-6.32,0,-6.2713,-6.2783,-6.2797,-6.2834,-6.2847,-6.2905,-6.2937,-6.2902,-6.2937,-6.2966,-6.3018,-6.3072,-6.3113,-6.3208,-6.3199,-6.3245,-6.3223,-6.3325,-6.3229,-6.3239,-6.3224,-6.3221,-6.3227,-6.3345,-6.3348,-6.3351,-6.3353,0,-6.2956,-6.2943,-6.2993,-6.3039,-6.308,-6.3114,-6.3143,-6.3175,-6.314,-6.3183,-6.3243,-6.3275,-6.3337,-6.339,-6.3431,-6.3437,-6.339,-6.3383,-6.3406,-6.342,-6.3427,-6.3424,-6.3111,-6.3376,-6.3374,-6.3372,-6.3371,-6.337,-6.3136,-6.3195,-6.3215,-6.3271,-6.329,-6.3318,-6.3371,-6.3367,-6.3417,-6.3466,-6.3441,-6.351,-6.3528,-6.3578,-6.3591,-6.3643,-6.3602,-6.3635,-6.3644,-6.3653,-6.3665,-6.3419,-6.365,-6.3649,-6.3649,-6.3648,-6.3648,0,-6.3376,-6.3386,-6.3439,-6.3482,-6.3526,-6.3479,-6.3508,-6.3548,-6.361,-6.3632,-6.3673,-6.3741,-6.3793,-6.3788,-6.3835,-6.3878,-6.3857,-6.3892,-6.3888,-6.389,-6.3698,-6.3674,-6.3908,-6.3908,-6.3908,-6.3908,-6.3908,-6.3908,-6.3507,-6.3604,-6.3593,-6.3698,-6.3706,-6.3775,-6.3796,-6.3822,-6.3838,-6.3918,-6.3961,-6.3958,-6.3968,-6.4016,-6.406,-6.4057,-6.4077,-6.412,-6.4109,-6.393,-6.3904,-6.3879,-6.3856,-6.4125,-6.4125,-6.4297,-6.4298,-6.4299]}]]